STARLINK-5661, 55343

Orbit data source: Space-Track

STARLINK-5661, 55343 is a payload satellite owned by SpaceX/Seattle (US) in LEO that was launched on Thu, 26 Jan 2023 UTC via an FALCON 9 launch vehicle from the Air Force Eastern Test Range (AFETR). Payload-class satellites include a variety of spacecraft equipped with specific instruments for various scientific and technological missions. These include communications satellites like Starlink; space stations such as the ISS; scientific satellites like the Hubble; Earth observation satellites from companies like Planet Labs, Umbra, and HawkEye 360; GPS; miniature CubeSats for education and research; and military/defense satellites.

Loading next visibility...
Identifier
55343, 2023-013N
Orbit
LEO
Country
Flag of USUS
Related business
Manufacturer
SpaceX/Seattle
Mission
Operational Commercial Communications
Bus & Motor
STARLINK, Unknown motor
Mass
305 kg wet, ~290 kg dry
Launch date (UTC)
2023-01-26 (3 years ago)
Launch vehicle
FALCON 9
Launch site
Air Force Eastern Test Range (AFETR)
Object type
Payload
Rocket body
Debris
Shape & HBR
Box + 1 Pan, 10.1 m
Radar Cross Section
13.562 m², Large (>1 m²)

Expand to show TLE details & history
Last TLE update: 1 day ago

TLE from 1 day ago
0 STARLINK-5661
1 55343U 23013N   25348.43259941  .00000630  00000-0  61718-4 0  9994
2 55343  43.0061  43.6714 0001474 272.3729  87.6944 15.02518824158883
Epoch: 2025-12-14T10:22Z
TLE epoch observation values (Epoch: 2025-12-14T10:22:56.589Z)
Latitude
-0.00004°
Longitude
164.58997°
Altitude
558.87 km
Speed
7.584 km/s
True Right ascension
02h 54m 41s
True Declination
0° 00' 00"
Sunlit
Object was in full shadow at epoch
Visualization orbit readout
Latitude
Unknown
Longitude
Unknown
Altitude
Unknown
Speed
Unknown
Apparent Right ascension
Unknown
Apparent Declination
Unknown
Sunlit
N/A
Visualization observer readout
Local Sidereal Time
15:09:07
Azimuth
Unknown
Elevation
Unknown
Doppler factor
Unknown
Orbital elements
Apogee altitude
562.078 km
Perigee altitude
560.032 km
Semi-major axis
6,939.192 km
Eccentricity
0.00015
Inclination
43.0061°
RAAN
43.6714°
Arg. of periapsis
272.3729°
True anomaly
87.71128°
Mean anomaly
87.6944°
Eccentric anomaly
87.70284°
Mean motion
3.75474 °/min
Orbital period
95.88 mins
BSTAR
0.000061718
Loading maneuver chart data...
Computing Atmospheric mass density...
Loading historical data...
Loading historical data...
Loading historical data...
Loading historical data...
Loading historical data...
Loading historical data...
Loading historical data...

Documentation

Showing up to 5 results
|